Change the Weather History Date:

Tuesday, September 30, 2014

  Actual Average Record
Temperature  
Mean Temperature 59 °F 56 °F  
Max Temperature 70 °F 70 °F 90 °F (1942)
Min Temperature 47 °F 43 °F 17 °F (1985)
Degree Days  
Heating Degree Days 6    
Month to date heating degree days 101  
Cooling Degree Days 0    
Month to date cooling degree days 80  
Growing Degree Days 8 (Base 50)    
Moisture  
Dew Point 44 °F    
Average Humidity 64    
Maximum Humidity 100    
Minimum Humidity 28    
Precipitation  
Precipitation T in 0.04 in 0.69 in (1945)
Month to date precipitation 1.94 1.16  
Year to date precipitation 17.54 14.65  
Sea Level Pressure  
Sea Level Pressure 29.75 in    
Wind  
Wind Speed 14 mph (West)    
Max Wind Speed 15 mph    
Max Gust Speed 19 mph    
Visibility 8 miles    
Events Rain , Thunderstorm    
T = Trace of Precipitation, MM = Missing Value Source: NWS Daily Summary

Daily Weather History Graph

Daily Weather History Graph

Search for Another Location

Airport or City:

Trip Planner

Search our weather history database for the weather conditions in past years. The results will help you decide how hot, cold, wet, or windy it might be!

Date:

Astronomy

Sep. 30, 2014 Rise Set
Actual Time 6:48 AM MDT 6:36 PM MDT
Civil Twilight 6:21 AM MDT 7:03 PM MDT
Nautical Twilight 5:49 AM MDT 7:35 PM MDT
Astronomical Twilight 5:17 AM MDT 8:06 PM MDT
Moon 12:58 PM MDT (9/30) 11:08 PM MDT (9/30)
Length of Visible Light 12h 42m
Length of Day
11h 48m
Waxing Crescent, 38% of the Moon is Illuminated
Sep 30
Waxing Crescent
Oct 1
First Quarter
Oct 8
Full
Oct 15
Last Quarter
Oct 23
New

Hourly Weather History & Observations

Time (MDT) Temp. Dew Point Humidity Pressure Visibility Wind Dir Wind Speed Gust Speed Precip Events Conditions
12:11 AM 48.0 °F 46.9 °F 96% 29.83 in 9.0 mi West 23.0 mph 31.1 mph 0.06 in Rain Light Rain
12:53 AM 48.0 °F 46.9 °F 96% 29.74 in 10.0 mi West 18.4 mph - 0.08 in   Mostly Cloudy
1:53 AM 46.9 °F 46.0 °F 97% 29.72 in 10.0 mi WSW 8.1 mph - N/A   Partly Cloudy
2:53 AM 46.9 °F 46.0 °F 97% 29.71 in 10.0 mi SSW 10.4 mph - N/A   Partly Cloudy
3:53 AM 46.9 °F 45.0 °F 93% 29.73 in 10.0 mi SW 11.5 mph - N/A   Clear
4:53 AM 48.0 °F 45.0 °F 89% 29.74 in 10.0 mi SSW 10.4 mph - N/A   Clear
5:53 AM 48.9 °F 45.0 °F 86% 29.75 in 10.0 mi SSW 9.2 mph - N/A   Clear
6:53 AM 48.0 °F 43.0 °F 83% 29.77 in 10.0 mi SSW 8.1 mph - N/A   Clear
7:53 AM 50.0 °F 43.0 °F 77% 29.78 in 10.0 mi SSW 9.2 mph - N/A   Clear
8:53 AM 55.9 °F 44.1 °F 64% 29.75 in 10.0 mi SSW 13.8 mph - N/A   Clear
9:53 AM 62.1 °F 42.1 °F 48% 29.73 in 10.0 mi SW 12.7 mph - N/A   Clear
10:53 AM 64.0 °F 44.1 °F 48% 29.73 in 10.0 mi West 8.1 mph - N/A   Clear
11:53 AM 66.0 °F 39.9 °F 38% 29.74 in 10.0 mi WNW 8.1 mph - N/A   Clear
12:53 PM 66.9 °F 36.0 °F 32% 29.72 in 10.0 mi Calm Calm - N/A   Clear
1:53 PM 66.9 °F 36.0 °F 32% 29.71 in 10.0 mi Variable 5.8 mph - N/A   Clear
2:53 PM 68.0 °F 37.0 °F 32% 29.69 in 10.0 mi West 4.6 mph - N/A   Partly Cloudy
3:53 PM 69.1 °F 36.0 °F 30% 29.69 in 10.0 mi West 9.2 mph - N/A   Scattered Clouds
4:53 PM 66.0 °F 34.0 °F 30% 29.70 in 10.0 mi West 5.8 mph - N/A   Clear
5:53 PM 64.9 °F 37.9 °F 37% 29.70 in 10.0 mi SSW 3.5 mph - N/A   Clear
6:53 PM 61.0 °F 42.1 °F 50% 29.72 in 10.0 mi Calm Calm - N/A   Clear
7:48 PM 55.4 °F 53.6 °F 94% 29.77 in 10.0 mi NW 17.3 mph - 0.13 in   Overcast
7:53 PM 54.0 °F 54.0 °F 100% 29.68 in 10.0 mi NW 18.4 mph 25.3 mph 0.13 in Rain Light Rain
8:53 PM 55.9 °F 43.0 °F 62% 29.74 in 10.0 mi SW 4.6 mph - N/A   Clear
9:53 PM 54.0 °F 41.0 °F 62% 29.73 in 10.0 mi SW 6.9 mph - N/A   Clear
10:53 PM 53.1 °F 52.0 °F 96% 29.72 in 3.0 mi West 16.1 mph 29.9 mph 0.15 in Rain , Thunderstorm Light Thunderstorms and Rain
10:55 PM 52.0 °F 51.1 °F 97% 29.80 in 1.8 mi WNW 26.5 mph 35.7 mph 0.07 in Rain , Thunderstorm Heavy Thunderstorms and Rain
10:57 PM 50.0 °F 50.0 °F 100% 29.80 in 1.0 mi WNW 33.4 mph 43.7 mph 0.11 in Rain , Thunderstorm Heavy Thunderstorms and Rain
10:59 PM 48.9 °F 48.0 °F 97% 29.81 in 0.8 mi WNW 29.9 mph 43.7 mph 0.16 in Rain , Thunderstorm Heavy Thunderstorms and Rain
11:05 PM 48.0 °F 46.9 °F 96% 29.82 in 1.2 mi West 29.9 mph 43.7 mph 0.19 in Rain , Thunderstorm Thunderstorms and Rain
11:08 PM 48.0 °F 46.9 °F 96% 29.82 in 2.0 mi West 27.6 mph 40.3 mph 0.22 in Rain , Thunderstorm Thunderstorms and Rain
11:17 PM 48.0 °F 46.9 °F 96% 29.83 in 2.5 mi WNW 25.3 mph 34.5 mph 0.28 in Rain , Thunderstorm Heavy Thunderstorms and Rain
11:24 PM 48.0 °F 46.9 °F 96% 29.83 in 5.0 mi WNW 21.9 mph 33.4 mph 0.30 in Rain , Thunderstorm Thunderstorms and Rain
11:53 PM 48.0 °F 46.9 °F 96% 29.75 in 4.0 mi West 23.0 mph 31.1 mph 0.39 in Rain , Thunderstorm Heavy Thunderstorms and Rain